Theta_e
288 289 289 290 288 286 286 286 285 285 286 286 283 284 286 286 281 279 284 285 283 285 288 290 290 291 292 292 293 294 296 296 296 296 296 296 296 297 297 298 298 299 299 299 300 300 300 300 299 299 300 306 315 322 325 327 329 331 332 332 332 333 334 335 335 336 337 337 337 336 336 337 338 338 338 338 338 337 337 337 337 337 337 337 336 336 336
287 288 289 290 288 286 286 286 286 287 287 286 286 285 286 286 284 286 286 286 285 288 289 291 292 294 293 294 295 295 294 294 295 295 295 295 296 296 297 297 298 299 299 300 300 301 301 300 300 300 300 300 305 313 323 326 327 330 331 331 332 332 332 334 335 336 336 336 336 336 335 336 337 338 338 338 338 337 337 337 337 337 337 337 337 336 336
284 286 289 290 288 286 284 286 286 287 286 286 287 286 286 287 285 286 286 285 284 289 292 292 294 295 295 294 293 293 294 295 295 295 295 295 296 297 297 298 298 299 299 300 300 300 301 301 300 300 300 300 302 309 318 326 328 329 330 331 331 332 332 332 333 334 335 335 336 335 335 336 336 337 337 337 337 338 337 337 337 337 337 337 337 337 337
280 283 285 288 288 287 285 283 284 284 283 282 284 283 285 284 282 284 284 282 283 289 293 293 293 293 292 292 292 293 294 295 295 295 295 296 297 297 298 298 299 299 299 299 299 300 301 301 301 300 300 299 300 304 312 322 328 329 329 330 330 330 331 331 332 333 334 335 335 335 335 335 336 336 337 337 337 337 338 337 337 337 337 337 337 337 337
279 283 284 285 286 284 281 281 283 284 285 286 286 287 288 288 287 283 281 282 288 290 292 290 290 291 291 292 292 293 294 295 295 295 295 296 297 297 298 298 299 299 299 299 300 300 301 302 302 301 300 300 299 302 308 317 327 328 328 328 329 329 328 327 327 326 324 325 327 330 333 335 336 336 336 337 337 337 337 338 337 337 337 337 337 337 337
280 283 284 285 282 275 276 286 290 287 284 285 283 284 286 288 287 285 287 287 289 290 290 289 289 290 291 292 294 296 295 294 295 296 296 297 297 298 298 298 299 299 300 300 301 301 301 302 303 303 302 301 300 302 306 313 323 327 327 328 328 329 328 327 326 325 326 326 326 325 326 328 330 334 335 336 337 337 337 337 337 337 337 337 337 337 337
279 283 281 277 274 276 286 291 291 290 290 289 287 287 288 288 289 288 287 288 289 290 291 291 292 293 294 295 295 295 296 296 296 295 296 297 297 298 298 298 299 299 300 300 300 300 301 302 303 303 301 301 301 300 304 309 318 325 327 327 327 328 327 327 326 323 323 323 324 325 325 326 327 328 330 336 336 336 336 336 336 336 336 336 336 336 336
281 280 279 273 274 284 288 289 290 292 291 290 288 286 289 291 290 289 287 288 289 291 292 293 294 294 295 295 296 296 297 298 297 297 297 298 299 298 299 299 300 300 300 300 300 301 303 303 303 303 301 301 300 300 303 307 313 321 326 327 326 327 325 325 324 324 323 323 323 324 326 325 326 327 328 333 335 335 335 336 336 337 337 337 336 335 336
277 278 277 277 284 284 285 284 285 287 285 286 285 280 285 290 291 290 287 288 290 291 292 293 294 295 295 293 294 297 298 299 300 300 300 301 301 301 301 302 301 302 302 302 302 303 302 302 303 303 302 301 300 300 301 306 311 317 322 325 326 326 326 325 325 325 325 326 326 326 328 328 327 328 332 334 334 335 334 335 335 335 335 335 336 336 335
278 278 275 273 276 276 279 284 289 291 291 291 291 287 284 290 292 293 290 288 289 290 292 293 294 295 291 288 290 296 299 300 300 302 302 303 304 304 304 304 304 304 304 304 304 303 302 302 303 303 302 301 300 299 300 303 309 314 318 322 326 326 326 326 327 327 328 328 328 329 330 330 330 331 332 334 335 334 334 334 334 335 335 336 336 336 334
277 277 273 272 274 277 282 285 288 290 292 292 292 286 280 288 290 291 291 289 291 291 292 293 294 291 286 287 291 297 300 301 302 301 303 303 302 302 302 302 302 304 305 305 304 304 303 302 303 303 302 300 300 300 300 301 306 311 315 320 323 324 326 326 327 328 328 329 329 329 329 329 330 330 331 333 335 335 336 336 335 335 334 335 335 335 334
277 277 274 272 275 277 284 288 289 291 293 292 287 276 277 287 290 292 292 291 292 293 294 294 292 290 285 288 293 299 301 301 302 302 302 301 299 298 298 298 301 304 307 306 305 303 302 302 303 303 301 300 300 300 300 300 303 308 313 317 321 323 325 326 326 326 327 327 328 328 328 328 328 331 333 333 333 333 334 335 335 334 332 334 334 333 333
278 279 276 275 275 282 286 287 290 292 294 290 278 274 281 290 291 293 293 293 293 294 293 294 290 293 295 296 299 301 301 301 301 303 303 301 298 296 296 297 299 301 303 305 304 304 303 303 303 302 300 299 300 301 301 300 301 305 310 315 319 321 322 323 324 325 327 327 326 327 328 329 330 330 331 332 331 332 332 333 332 331 331 332 333 332 332
279 280 276 273 275 283 288 290 291 293 288 278 277 286 292 292 291 293 293 293 294 295 294 294 295 296 298 300 300 300 300 300 301 302 302 301 297 296 298 299 299 299 300 302 303 303 304 303 302 300 299 299 300 301 300 300 302 305 308 312 315 316 317 319 322 324 327 328 329 330 331 331 330 329 330 332 331 332 332 331 331 331 331 328 331 332 332
281 279 277 275 273 282 291 290 288 292 283 284 290 291 292 293 292 292 293 294 294 295 294 296 297 297 298 299 299 300 300 300 300 301 302 301 296 295 298 299 300 301 300 300 300 300 302 302 300 298 299 299 300 301 301 302 304 305 307 309 310 312 314 315 317 321 324 326 328 331 330 330 330 329 328 329 329 330 329 329 329 330 330 330 331 331 332
279 279 277 277 283 288 292 290 284 288 291 292 292 291 289 292 292 292 293 294 295 296 296 296 297 297 298 298 299 300 300 300 301 302 303 303 300 297 300 301 301 302 300 300 298 299 298 298 298 299 300 300 301 302 302 304 303 304 305 306 307 308 310 313 315 316 319 322 326 328 327 327 328 328 325 327 328 329 328 328 329 329 330 331 331 331 331
282 281 281 286 289 290 292 291 291 292 293 293 292 291 291 290 292 294 293 294 296 297 297 297 297 296 298 298 299 299 299 300 300 301 302 302 303 301 299 300 301 301 301 299 298 299 300 299 299 299 301 301 302 302 303 304 303 304 304 305 306 307 308 309 311 314 316 319 321 322 324 325 324 324 323 324 325 325 326 327 328 329 330 331 330 330 330
284 286 290 290 289 290 290 289 290 290 291 292 291 291 290 291 292 294 293 295 296 297 298 297 297 297 298 298 299 299 300 300 301 302 302 303 304 304 303 301 300 300 300 299 298 298 299 301 301 301 301 303 303 304 303 305 306 305 305 305 305 306 307 308 310 312 313 315 317 320 320 323 324 325 325 324 325 325 327 327 328 328 329 329 329 330 330
282 279 284 286 289 290 290 290 290 290 291 291 291 291 291 292 293 294 295 296 296 298 298 298 297 297 298 298 299 299 300 300 300 301 301 302 302 303 303 303 301 300 299 298 298 298 298 299 302 302 301 303 304 303 304 305 306 306 306 306 306 305 306 307 308 311 312 313 314 314 316 318 320 322 323 325 324 322 325 327 327 328 328 326 328 328 328
281 281 287 289 290 290 290 288 288 288 290 291 291 292 292 293 294 294 295 296 297 298 298 298 297 297 299 298 298 299 299 299 299 300 301 301 302 303 304 305 305 305 303 301 299 299 299 298 298 300 301 302 302 303 304 305 306 306 306 306 306 306 306 307 308 310 311 305 311 315 316 319 319 318 320 322 322 322 323 325 326 326 326 325 325 326 327
282 284 285 286 287 286 287 288 288 289 290 290 291 292 292 292 292 293 295 297 297 298 298 298 298 297 298 299 299 299 299 299 299 299 301 301 302 303 303 304 305 305 305 304 304 304 303 300 298 298 298 299 300 301 303 304 305 306 305 303 305 305 305 306 307 307 309 310 312 314 315 316 319 321 321 320 321 322 324 326 327 327 326 327 326 328 329
279 280 284 286 283 282 287 288 289 290 291 290 290 291 291 292 292 293 294 295 297 299 299 298 298 298 298 299 299 299 299 299 299 299 300 301 302 302 303 304 305 305 306 306 305 305 305 303 304 302 301 301 301 300 301 302 303 304 303 302 303 303 303 304 305 305 306 307 309 310 313 315 315 313 305 308 316 322 321 309 307 309 311 324 327 328 327
282 286 287 288 287 286 288 289 290 290 290 290 290 290 291 291 293 294 294 294 296 297 299 300 299 298 299 299 300 299 299 299 300 300 300 300 301 301 302 302 303 304 304 305 305 305 306 308 308 307 307 307 307 306 304 300 300 301 301 301 300 300 301 302 301 303 304 305 307 309 310 312 314 314 316 312 302 302 307 308 304 302 302 306 307 309 321
288 290 291 289 287 286 288 290 290 290 290 289 290 291 291 292 293 294 294 295 295 297 298 299 300 299 299 300 300 299 299 300 299 300 300 301 301 301 302 302 302 303 303 303 304 304 306 307 307 308 308 309 310 311 311 308 301 300 300 301 301 300 300 300 299 300 302 303 305 307 309 310 311 311 312 313 314 305 298 297 298 298 299 300 302 301 304
288 289 289 289 289 289 289 289 290 290 292 291 290 291 291 292 292 294 294 295 297 297 298 298 299 300 299 300 300 299 299 299 299 299 299 299 299 300 301 301 301 302 303 303 304 304 305 305 306 306 307 307 308 309 310 311 311 305 300 300 300 299 299 300 299 298 300 301 302 305 307 309 309 310 311 310 311 312 308 299 297 297 297 299 300 301 301
293 293 291 290 289 289 289 289 289 289 291 290 289 291 293 295 295 294 294 295 296 298 298 298 298 299 299 299 299 299 299 299 298 299 300 299 299 300 300 300 301 302 303 303 303 304 304 304 305 305 305 306 308 308 309 310 311 311 307 301 300 300 300 300 300 300 300 301 302 304 306 308 310 311 311 312 312 311 312 311 311 304 298 296 298 300 300
292 292 291 290 288 287 287 289 288 290 290 290 289 290 291 291 293 293 294 295 296 297 298 299 299 298 298 299 298 299 298 298 299 299 299 299 298 299 301 301 301 301 301 302 302 301 300 303 304 304 304 305 307 308 309 309 310 312 313 310 305 298 293 297 302 302 303 303 303 305 306 307 308 309 311 311 312 312 312 311 313 314 317 315 303 297 305
291 291 289 288 286 287 288 288 288 289 289 289 290 290 291 291 292 292 293 293 294 296 297 298 298 297 297 298 298 298 298 298 298 298 298 298 299 300 301 301 301 301 301 300 301 301 302 304 303 303 303 305 306 307 308 308 309 311 313 314 313 310 306 302 303 305 305 306 306 306 307 308 309 310 309 310 310 312 311 311 313 314 314 317 317 302 298
291 291 289 289 288 288 289 289 288 288 290 291 291 290 290 291 291 291 292 292 293 294 294 296 297 297 297 297 298 297 297 297 297 297 298 299 299 300 300 301 300 300 299 299 300 301 301 303 303 302 303 304 305 306 307 307 306 306 309 313 315 314 312 310 307 307 307 308 308 308 303 304 310 310 310 311 310 314 313 315 314 315 318 316 311 309 301
290 290 290 290 289 289 289 289 288 288 289 289 289 290 290 289 291 291 291 292 292 292 293 295 296 296 297 297 297 297 296 296 297 297 298 298 298 299 300 300 300 299 299 298 299 299 300 301 301 301 302 303 305 306 306 306 306 306 305 303 302 301 308 313 312 310 310 310 310 300 306 308 311 313 312 314 314 313 313 314 314 314 317 317 309 316 314
290 289 290 291 291 290 289 290 288 287 288 288 288 288 290 289 289 290 291 291 292 292 293 293 294 295 296 297 297 297 298 298 298 297 297 297 297 298 298 299 297 295 296 297 298 299 299 299 301 301 302 303 304 305 306 305 305 305 305 304 302 292 289 290 297 309 311 311 308 309 310 310 312 312 310 314 315 315 317 317 314 315 313 316 316 315 316
291 291 289 290 290 290 289 288 287 288 288 288 288 289 288 288 288 289 290 291 291 291 292 293 293 294 295 296 296 297 297 297 297 296 297 297 297 297 297 298 298 295 297 297 297 298 298 298 299 301 303 303 303 304 305 305 304 304 304 299 302 301 295 293 299 299 302 300 303 305 303 308 310 311 312 312 316 316 316 314 314 312 313 314 313 311 305
291 289 290 289 289 288 290 288 289 290 288 288 288 288 288 288 288 289 290 290 291 292 292 292 293 294 295 295 295 295 295 295 295 296 296 296 296 296 296 297 298 298 297 297 297 297 297 296 298 301 302 302 302 302 304 305 304 303 303 303 303 301 295 295 295 300 299 301 301 302 303 302 304 304 303 304 305 305 308 307 306 307 307 304 300 299 300
291 290 291 291 291 291 290 290 289 289 289 288 288 288 289 289 289 289 289 290 291 291 291 292 292 293 294 294 294 294 294 294 293 293 294 295 295 295 296 296 296 297 297 297 297 297 297 297 297 299 301 301 301 300 302 304 304 304 303 303 302 301 301 300 298 299 299 298 299 299 300 298 301 302 301 301 302 301 300 301 299 302 299 297 297 297 294
292 291 291 291 290 291 291 292 292 291 290 290 290 290 289 288 288 289 289 290 289 290 291 292 292 293 293 293 293 293 293 292 292 293 293 294 294 294 295 295 295 295 296 296 296 296 296 296 295 296 300 300 300 299 299 302 304 303 303 303 300 300 301 299 300 300 299 300 300 300 299 299 299 295 297 301 301 301 299 298 298 298 298 297 297 296 294
292 292 292 292 292 292 292 292 293 293 291 289 289 289 289 289 289 290 290 289 290 290 291 292 292 292 292 292 292 292 291 292 292 292 293 293 294 294 293 293 293 293 293 294 295 295 295 295 290 289 296 298 298 298 295 297 303 302 301 302 300 300 299 299 300 300 299 301 300 299 299 296 296 296 298 299 299 299 299 298 298 298 297 296 296 296 296
292 293 293 291 291 290 290 291 292 293 292 290 289 292 293 292 290 289 289 289 290 290 290 291 291 291 291 291 292 292 292 292 291 292 292 293 293 293 292 291 291 291 291 291 292 294 294 293 290 290 295 297 297 297 293 290 299 301 301 302 301 300 300 300 300 300 300 300 300 299 298 298 301 300 298 300 299 298 298 298 297 297 297 296 296 296 296
292 291 291 291 291 291 291 292 292 292 292 292 292 292 292 291 290 290 290 289 290 290 289 290 290 290 291 291 292 292 291 292 291 291 291 291 292 291 291 289 289 289 289 289 292 294 292 291 290 293 296 296 296 297 293 289 291 299 300 299 299 299 298 299 299 298 298 300 297 300 299 300 300 300 300 300 300 298 297 298 297 298 299 298 298 298 297
292 289 290 290 290 290 290 291 292 292 292 293 293 294 292 291 291 293 293 291 290 289 290 291 290 291 291 291 291 291 291 291 290 290 290 290 290 290 290 289 289 289 289 290 293 293 291 290 293 294 294 295 295 296 293 289 291 297 297 298 298 297 297 298 298 298 297 297 298 298 299 298 298 298 299 299 299 298 296 296 297 297 299 300 300 300 300
290 289 290 290 289 289 289 289 291 292 293 294 294 294 294 294 295 294 292 291 291 289 289 289 291 290 290 290 290 290 290 290 290 289 289 289 289 289 289 290 289 289 289 288 291 292 289 289 291 293 293 294 294 294 293 291 291 295 295 295 296 296 296 295 297 297 297 298 297 294 298 297 297 297 297 298 298 298 299 299 299 299 299 300 300 301 300
289 289 289 289 289 288 288 288 288 289 289 291 293 294 294 295 295 293 291 290 290 289 288 289 289 290 290 290 290 289 290 289 289 289 288 288 287 287 286 286 288 288 288 289 290 290 289 290 290 291 292 293 293 290 293 292 294 295 294 293 293 294 294 294 294 295 295 295 295 296 297 297 297 297 296 297 297 298 298 298 299 299 300 299 299 299 299
289 288 289 289 288 288 287 287 288 289 289 289 291 294 295 295 294 293 291 289 288 288 287 288 287 288 289 289 289 289 289 289 289 288 288 287 286 286 285 287 288 287 286 288 289 290 291 291 290 289 290 291 291 288 289 292 294 294 293 292 292 292 292 292 292 292 293 294 294 295 295 295 295 295 295 296 296 296 297 297 297 298 299 298 298 299 299
289 289 289 288 288 287 287 286 287 288 288 289 291 292 293 293 292 290 289 287 287 287 287 287 287 287 288 288 288 288 288 288 287 287 287 287 287 287 286 286 287 287 286 287 289 290 290 290 290 290 288 288 289 288 289 292 292 292 292 292 291 291 291 291 291 291 291 291 292 292 292 292 293 293 292 293 294 294 295 296 296 296 296 298 298 298 298
289 288 288 288 287 287 286 286 285 286 287 288 289 290 292 291 289 288 287 286 286 286 286 286 286 286 286 286 287 287 287 287 287 286 285 286 287 288 287 285 285 286 286 286 288 288 289 289 289 288 287 287 287 287 290 291 290 290 290 290 290 290 290 290 290 290 289 289 289 290 290 289 290 290 290 290 291 291 292 293 294 295 295 296 296 296 296
289 288 288 289 287 285 285 284 286 288 288 287 287 289 289 288 288 287 287 286 286 286 285 285 286 286 286 285 285 286 286 287 286 286 286 284 284 286 287 284 285 285 285 285 286 287 288 288 288 287 287 287 287 287 289 289 289 288 288 289 289 289 289 289 288 288 288 288 288 288 288 288 289 289 289 288 288 288 289 290 291 292 292 292 293 293 293
288 288 287 285 287 286 286 286 285 285 286 286 286 286 286 286 287 286 286 286 286 286 286 286 285 286 286 286 285 285 286 286 286 286 287 286 285 285 285 284 284 285 285 285 285 286 286 286 286 287 287 287 287 288 288 287 287 287 287 287 287 287 288 288 287 287 287 287 287 287 287 287 287 287 287 287 287 287 287 287 288 289 289 290 290 290 290
288 288 287 287 288 286 285 285 284 285 285 285 286 286 286 284 285 285 285 285 285 286 285 285 286 286 285 285 286 285 285 285 285 286 285 286 285 284 285 285 284 284 284 285 285 285 284 285 286 286 287 287 287 288 287 286 286 286 286 286 286 286 286 286 286 286 286 286 286 286 286 286 287 287 286 286 286 286 286 286 286 286 287 287 287 287 287
288 288 288 287 288 286 285 284 285 285 285 287 287 287 286 285 284 284 284 284 284 284 284 283 283 283 284 284 284 285 285 284 284 286 285 284 284 284 285 284 284 284 284 284 284 284 284 284 285 285 286 286 287 287 286 286 285 285 285 285 284 284 285 285 285 285 285 285 285 285 285 285 285 286 286 285 285 285 285 285 285 285 285 285 285 285 286
288 289 289 287 287 286 286 285 285 284 286 285 284 285 285 284 284 284 284 284 284 284 284 284 284 284 284 283 284 284 284 284 284 285 285 283 284 285 285 284 284 283 284 284 284 284 283 283 284 285 285 286 286 286 285 285 284 284 284 284 284 284 284 284 284 284 284 284 284 283 284 283 284 284 284 284 284 284 284 284 284 284 284 284 284 284 284
288 287 286 286 286 286 286 285 285 286 286 285 284 285 284 283 284 285 283 283 284 283 282 282 282 282 282 282 282 282 282 284 284 283 282 283 284 284 284 284 283 283 283 283 283 283 282 283 283 284 285 285 285 284 284 284 284 283 283 283 283 283 283 283 283 283 283 282 282 282 282 282 282 282 283 283 283 283 283 283 283 283 283 283 283 283 283
287 287 288 287 287 288 288 288 288 288 286 286 286 284 283 284 286 285 285 284 283 283 284 285 284 282 282 283 283 282 281 282 282 283 283 283 283 283 282 283 283 282 282 282 282 282 282 282 284 284 284 284 283 283 283 283 282 282 282 282 282 282 282 282 282 281 281 281 280 280 280 281 281 281 281 282 282 282 282 282 282 282 282 282 282 282 282
289 289 289 289 288 288 288 288 288 287 286 286 285 284 284 285 284 284 283 282 283 284 284 284 284 284 282 281 282 283 281 281 281 282 282 283 283 282 282 281 282 282 282 281 281 281 282 282 282 283 283 283 283 282 282 282 281 281 281 281 280 280 280 280 280 280 280 280 280 279 279 279 279 279 280 280 281 281 281 281 281 281 281 281 281 281 281
Wind_Speed
5 6 6 7 4 0 1 3 3 4 6 5 2 2 4 2 3 7 8 10 15 19 19 19 17 16 16 16 17 17 17 19 19 19 20 21 20 19 18 17 16 16 16 15 16 17 16 14 16 14 10 8 8 8 10 11 12 14 14 13 14 13 13 14 14 14 13 13 13 13 12 11 10 10 10 10 9 8 8 9 8 9 8 8 8 8 8
6 6 5 3 3 2 3 5 3 4 5 6 6 7 7 6 9 10 12 14 18 19 17 17 16 13 14 16 15 17 19 20 20 20 21 21 22 21 20 19 18 17 18 17 16 17 18 16 17 16 13 10 9 10 10 11 12 13 13 14 15 14 14 14 13 13 12 11 11 12 13 12 12 11 10 9 9 9 10 9 9 9 9 9 9 10 10
3 3 2 1 2 4 7 4 3 3 3 4 6 7 7 8 9 10 12 14 17 16 11 10 12 15 18 18 19 20 19 18 19 19 21 22 22 22 22 21 19 18 19 19 18 18 19 18 17 16 15 12 10 10 10 9 11 12 12 14 14 15 15 14 12 11 11 12 11 12 12 12 11 11 11 10 10 10 10 10 10 9 9 10 11 10 10
3 2 3 2 3 7 7 8 8 7 9 11 8 7 5 6 10 11 11 12 11 11 8 13 16 16 17 19 20 19 19 21 23 24 24 23 23 22 23 22 21 20 20 20 20 20 19 19 17 16 15 13 9 10 9 9 10 10 11 13 14 13 13 11 9 9 7 9 11 10 10 10 11 11 10 10 11 11 11 11 10 9 10 11 11 9 8
2 4 3 2 5 5 3 11 8 5 5 5 8 8 7 7 7 9 7 9 9 14 15 18 21 19 21 21 18 20 22 21 22 24 25 27 27 27 24 22 22 21 21 21 21 21 19 18 17 17 16 14 12 11 10 9 8 8 11 13 13 12 10 11 11 11 10 9 7 6 4 6 8 8 9 11 12 12 13 12 11 11 11 10 10 9 9
4 7 7 1 2 5 3 5 4 3 6 12 14 14 14 14 2 6 7 13 15 15 16 18 22 22 22 21 20 18 21 22 24 25 25 26 26 25 25 25 23 22 20 19 19 20 20 20 19 17 15 15 13 11 10 9 8 9 11 12 13 13 13 12 11 11 13 13 13 11 9 4 1 4 8 12 12 12 11 10 11 11 10 11 10 10 11
3 6 5 4 3 2 3 4 5 5 7 8 11 16 15 12 7 7 10 12 14 18 18 19 20 22 24 23 21 22 23 23 22 24 26 27 27 27 25 25 24 24 23 22 21 21 20 20 18 16 16 14 13 10 9 9 9 10 11 13 12 11 12 13 14 12 11 10 12 13 13 11 9 9 12 12 11 10 9 11 11 12 12 11 11 11 11
1 2 5 2 0 1 3 6 6 6 6 8 11 14 8 1 3 4 8 14 18 19 20 21 20 20 22 21 18 21 23 22 20 21 21 25 27 27 25 25 25 24 24 23 21 21 19 18 17 16 16 14 13 12 9 10 10 10 11 12 13 11 11 12 13 13 13 12 11 10 11 12 13 13 15 15 13 10 9 9 10 10 10 10 10 11 11
4 2 3 1 1 0 3 5 7 6 10 10 9 6 14 10 6 1 13 19 20 21 21 21 21 20 20 18 16 13 15 17 18 21 23 24 26 27 28 26 27 25 26 25 22 20 19 18 19 18 17 15 13 12 9 10 10 10 10 12 13 13 13 13 14 14 13 13 12 12 12 13 14 16 17 14 12 10 10 10 10 11 11 11 10 10 11
2 2 3 3 2 2 4 4 7 3 5 4 3 2 13 2 3 8 17 18 20 21 21 21 22 23 18 15 12 10 15 21 24 23 22 22 22 23 24 25 24 24 24 24 22 19 20 21 20 17 16 14 12 11 10 10 10 10 11 13 13 13 13 13 14 14 14 14 14 14 14 15 16 16 15 12 11 11 12 11 11 11 10 10 10 9 10
4 4 2 0 1 1 2 9 8 8 8 4 2 2 9 2 10 17 14 18 19 20 21 23 21 16 16 17 15 17 21 23 23 22 19 18 19 20 20 21 24 22 21 22 22 19 20 21 20 18 16 14 13 12 11 10 10 11 12 13 13 13 13 13 12 13 13 13 13 14 13 13 14 14 13 12 11 9 10 10 11 10 8 8 8 8 9
3 1 2 2 1 1 6 8 7 9 10 2 1 7 6 8 19 17 17 19 21 20 21 20 19 18 21 22 21 22 23 24 23 20 20 18 18 20 19 19 19 19 17 18 19 20 21 21 18 18 16 13 14 13 12 9 10 11 13 14 14 14 13 12 12 11 11 12 13 14 16 16 14 13 11 10 9 9 9 9 9 8 7 7 8 9 8
3 2 2 2 2 3 3 5 11 7 11 1 7 8 15 19 18 18 16 19 19 18 19 17 16 16 15 20 23 24 24 24 23 20 17 16 16 18 18 17 15 13 12 12 15 17 16 17 16 16 15 14 14 13 10 9 11 13 13 12 13 12 11 11 12 13 12 13 14 13 12 12 12 10 9 9 9 9 9 7 6 6 7 7 7 7 7
2 2 1 3 3 4 2 5 8 6 7 7 14 10 11 15 17 17 16 18 19 18 18 16 15 18 21 21 20 22 23 22 21 20 19 18 17 14 14 13 11 9 9 9 11 14 15 15 15 13 13 14 13 12 9 11 13 13 11 11 10 9 10 11 12 13 13 12 12 11 10 10 10 10 9 9 9 10 9 8 9 8 7 6 7 7 7
0 0 3 2 3 2 5 9 4 2 7 5 8 13 12 11 14 15 16 14 17 16 17 19 19 20 21 21 22 21 22 21 21 19 18 18 17 14 11 11 9 5 4 4 6 7 10 11 9 10 13 13 12 9 11 14 13 11 10 10 10 11 11 10 9 11 12 14 12 9 10 11 11 11 9 9 8 8 8 7 7 7 7 6 6 7 6
2 3 5 3 4 8 5 6 3 6 3 6 9 9 14 12 12 12 13 16 16 18 18 19 19 20 20 21 20 20 21 21 18 18 17 17 15 11 9 10 12 12 4 1 4 1 3 4 8 9 12 12 10 11 14 14 8 8 9 10 10 10 10 11 11 9 9 10 11 10 11 10 11 11 9 8 8 8 8 8 7 8 7 7 7 7 8
1 2 2 7 6 5 5 1 4 5 8 7 9 8 10 12 11 11 11 15 17 17 18 19 19 17 18 19 21 21 21 21 19 17 16 15 15 13 10 9 9 10 9 9 6 2 0 4 6 9 10 11 10 13 10 7 9 10 10 10 10 10 10 9 10 9 8 8 9 9 9 11 10 9 7 7 7 5 6 7 7 8 8 8 8 8 8
3 3 9 4 5 5 7 5 3 4 6 8 6 8 10 10 11 10 11 14 16 16 17 16 16 16 19 19 20 21 21 20 19 17 16 16 16 14 12 11 9 5 7 7 7 5 1 2 6 7 7 9 13 11 7 9 9 10 11 11 10 11 10 10 10 9 9 8 9 9 10 9 10 10 10 9 9 8 8 8 8 8 8 7 7 8 8
2 1 3 3 6 6 7 6 7 5 5 5 6 7 8 10 13 14 14 13 14 15 15 16 18 19 18 19 18 19 19 19 18 17 16 15 15 15 14 11 10 8 5 5 5 6 3 2 3 5 7 9 8 8 9 8 9 10 10 10 9 8 8 7 7 8 9 8 7 6 6 7 7 7 8 8 9 8 8 9 8 8 8 8 8 8 9
1 3 5 7 7 7 7 5 4 6 7 7 7 7 8 9 11 11 12 13 14 14 15 17 17 19 19 18 19 17 17 17 16 16 16 17 16 15 13 13 11 10 10 8 6 4 6 6 5 3 1 0 3 8 8 9 9 9 10 10 10 9 9 8 8 8 8 10 10 8 7 8 8 6 6 8 8 9 9 8 8 8 8 8 8 9 9
5 5 5 5 7 4 5 5 4 5 7 7 9 10 9 9 11 14 16 13 13 14 14 16 16 18 20 18 18 17 16 18 17 17 16 16 16 16 17 15 14 14 13 14 14 15 13 10 8 6 5 5 7 5 4 8 10 11 10 9 9 8 8 8 8 7 8 9 8 9 8 7 8 10 11 9 9 9 9 9 10 10 10 10 10 10 10
3 2 4 1 4 6 8 5 6 7 8 6 9 9 9 11 13 13 16 18 15 13 14 15 16 17 17 20 19 18 16 18 20 18 18 17 17 18 16 14 16 16 16 16 15 16 14 11 10 9 9 9 8 8 6 4 3 9 8 8 8 9 8 8 8 8 8 8 8 9 9 9 7 4 5 6 11 11 9 11 14 16 13 11 11 10 10
4 6 5 1 2 5 8 6 6 7 6 6 9 11 10 11 12 13 13 14 17 17 16 15 16 17 17 19 19 18 16 17 19 18 19 18 17 17 18 19 19 17 16 16 16 16 14 13 12 11 10 10 9 9 8 5 5 3 6 7 6 7 7 7 9 9 8 8 7 7 8 8 8 8 7 6 8 10 7 9 15 16 15 16 16 15 12
5 6 6 3 2 3 5 6 6 6 5 5 9 9 8 8 11 12 13 12 12 14 15 16 16 16 18 18 18 19 18 17 19 19 18 18 16 16 17 16 16 17 18 17 15 14 12 11 11 11 11 11 10 8 6 6 3 1 0 4 7 7 7 6 7 7 7 7 7 7 6 6 7 8 8 7 7 7 9 8 7 12 15 17 17 15 16
4 1 2 2 4 6 5 5 6 5 5 5 6 10 10 10 11 10 11 12 12 12 13 15 16 15 16 17 17 17 17 19 18 18 18 17 18 17 17 18 17 15 13 12 12 12 12 12 11 11 11 11 10 9 8 6 3 1 3 4 4 4 6 6 7 7 7 6 7 7 7 6 6 6 7 7 8 8 4 3 7 11 12 16 18 17 17
6 6 4 3 2 4 3 4 4 4 7 6 5 7 10 9 10 10 11 10 11 11 12 13 15 16 14 15 16 18 19 20 19 18 17 18 18 19 19 17 15 13 13 12 12 12 12 12 10 10 10 11 9 9 8 7 5 4 4 4 6 6 7 7 7 7 7 7 8 8 8 8 9 8 8 8 9 8 8 5 3 6 9 14 17 18 18
4 5 1 1 1 3 2 1 4 5 6 5 5 7 8 8 9 8 9 10 11 11 11 13 12 13 13 14 16 16 17 18 19 19 18 21 21 18 16 15 16 15 15 14 14 13 12 11 9 9 10 10 9 8 7 6 5 5 5 5 6 7 10 7 7 8 8 8 8 8 8 8 8 8 9 9 9 9 9 9 9 10 10 11 12 14 15
4 4 4 2 2 3 3 3 4 5 5 4 6 6 7 7 7 9 11 12 13 13 12 12 13 14 15 14 14 15 16 18 18 18 18 18 16 15 16 17 15 12 11 14 14 14 13 11 10 11 12 11 10 9 7 6 6 6 7 6 6 6 6 7 7 7 7 7 8 8 8 8 8 8 8 9 9 10 10 10 10 10 9 9 10 13 21
4 4 3 4 4 4 3 3 3 3 5 6 5 4 5 8 8 9 10 10 10 11 12 13 12 12 12 13 14 14 14 16 17 17 16 15 16 15 15 15 15 18 19 19 17 17 15 12 12 13 13 13 11 10 8 7 5 4 3 6 7 7 7 7 7 7 7 7 8 8 8 8 8 7 7 8 9 9 9 9 10 10 10 8 6 4 6
2 1 1 2 2 2 2 1 2 4 4 4 5 6 5 5 8 8 9 9 9 10 11 11 12 13 13 13 14 14 14 14 13 13 14 14 15 15 15 15 14 17 19 19 18 17 13 11 12 14 14 14 12 11 10 8 6 7 6 6 4 3 3 5 7 7 7 8 9 9 9 8 8 9 8 9 9 9 9 9 10 9 9 6 5 7 7
3 2 2 3 2 2 1 1 2 3 3 4 4 4 6 6 5 6 8 7 8 9 10 10 11 11 12 12 12 12 11 12 13 13 14 14 15 15 14 14 15 14 13 12 13 14 16 19 19 18 16 14 13 11 10 10 8 7 7 6 5 9 11 8 3 4 7 7 6 6 6 6 7 7 8 8 8 8 8 7 7 7 5 4 6 8 6
4 6 4 3 1 0 0 0 1 2 3 3 3 4 4 4 4 5 6 7 7 6 8 10 10 11 10 10 11 12 12 12 12 13 14 14 15 15 15 14 13 12 12 13 13 13 13 12 12 9 9 10 11 10 10 10 10 10 9 7 7 8 11 14 9 8 5 3 2 3 3 6 5 6 7 8 8 8 7 6 6 6 5 6 6 3 3
0 3 4 3 2 1 1 1 0 1 2 3 3 3 3 3 3 3 4 4 5 7 8 8 9 9 9 10 10 11 11 11 11 13 14 15 15 15 14 13 12 12 13 13 13 13 13 15 13 13 13 14 15 14 13 12 12 11 10 9 8 10 11 13 12 10 9 9 7 5 4 5 5 4 2 1 1 2 2 1 1 1 3 5 4 3 2
4 4 5 4 3 3 3 3 2 2 2 3 3 3 2 3 3 3 4 4 5 6 6 7 7 8 8 9 10 11 11 12 13 13 13 13 13 14 14 13 12 12 12 14 14 13 13 14 14 13 14 16 16 15 15 14 13 12 12 12 12 12 11 11 13 12 11 11 8 8 8 6 8 7 6 6 6 6 6 6 5 6 6 6 4 3 6
4 5 4 5 4 4 4 5 4 3 3 2 1 1 1 2 3 2 2 4 4 4 4 5 6 6 7 8 10 10 11 10 10 11 11 12 12 12 11 12 13 14 15 16 16 14 14 14 14 13 14 16 16 16 15 14 13 13 13 12 13 11 10 11 12 12 12 10 8 10 10 10 9 8 9 9 8 8 8 8 7 7 6 6 4 5 6
3 4 4 4 4 4 4 4 4 4 4 4 3 2 2 2 3 3 3 3 4 4 5 5 5 6 8 8 8 9 9 9 9 9 10 11 11 10 12 14 14 15 15 16 16 15 15 14 18 18 13 13 15 16 16 14 13 13 12 12 11 10 11 12 12 11 10 9 10 10 10 10 10 10 10 10 9 9 9 8 8 7 7 5 4 4 4
2 3 3 3 3 3 4 4 4 4 5 4 3 1 1 1 1 2 2 3 4 4 4 5 6 7 7 6 6 7 8 8 8 8 8 8 8 10 13 13 14 14 13 14 15 14 13 14 18 18 13 12 13 15 17 19 12 11 12 12 12 12 12 12 12 11 11 11 11 11 12 10 10 10 10 9 9 8 8 8 7 7 7 6 4 4 5
2 2 3 3 2 3 3 2 2 4 3 1 0 0 0 2 3 2 2 3 4 4 4 3 4 3 4 5 7 8 8 9 9 9 9 10 9 10 11 12 12 11 12 11 11 11 12 15 17 14 12 12 12 13 16 20 17 13 11 12 12 12 12 12 12 12 12 11 10 11 10 9 10 10 10 10 9 9 9 8 8 7 7 7 6 6 4
0 1 0 0 0 1 2 2 2 2 2 3 2 1 1 0 1 1 3 4 3 3 4 4 4 5 6 6 7 7 8 8 8 9 9 10 9 10 9 9 8 8 7 9 10 10 12 14 12 12 12 12 13 12 14 17 16 12 12 11 12 12 12 11 11 11 11 11 11 11 11 11 11 12 11 10 9 8 7 10 9 8 8 7 7 7 7
1 0 1 1 3 2 3 3 3 2 1 2 4 3 2 2 1 3 3 3 4 4 3 3 5 6 6 6 5 6 6 6 7 8 8 7 9 9 9 11 12 11 12 12 10 10 14 18 14 11 11 11 12 10 11 15 13 11 11 11 11 11 11 11 11 12 11 11 12 12 11 11 11 10 9 9 9 9 9 9 10 9 9 9 9 8 8
2 2 2 3 4 3 4 4 3 2 2 2 2 1 1 2 3 3 3 3 3 3 3 3 4 5 4 4 3 3 4 5 6 7 7 9 9 8 9 10 10 10 10 9 9 11 14 12 11 11 10 10 11 12 10 14 12 10 10 11 11 11 11 11 11 11 11 11 12 11 11 11 11 12 11 11 11 10 10 10 10 10 9 9 9 8 8
3 2 3 3 3 4 4 3 4 4 3 2 2 1 1 1 2 4 1 2 2 3 3 4 4 3 2 3 3 4 6 6 5 5 6 7 7 7 9 9 9 8 12 11 11 11 11 11 11 10 10 10 10 16 15 11 11 10 10 10 10 10 10 11 11 10 10 10 10 10 10 10 11 11 11 11 11 11 11 11 11 10 10 10 9 9 9
4 5 5 4 3 2 3 3 3 4 4 2 2 3 3 1 2 3 3 2 3 3 4 4 4 5 4 5 5 6 5 5 5 5 4 3 3 3 4 5 7 8 12 10 10 9 9 8 9 9 13 13 12 15 14 11 10 10 10 10 10 10 10 10 10 10 10 10 10 10 10 10 10 11 11 11 11 11 11 11 11 10 10 11 10 10 10
5 4 4 4 4 2 2 3 3 3 4 2 1 1 2 2 2 4 4 3 3 2 2 2 3 3 4 3 4 5 5 5 5 5 5 6 6 6 5 6 6 9 13 9 8 8 8 8 8 12 16 18 18 16 10 9 10 10 10 10 10 10 11 11 11 11 10 10 10 10 10 10 11 11 11 12 11 11 10 11 11 11 11 11 10 10 10
5 5 5 5 5 4 3 3 5 6 5 4 3 3 3 4 4 3 4 4 3 2 1 1 1 1 1 2 2 1 1 2 2 3 6 6 6 6 7 6 7 6 9 10 8 8 8 8 11 15 14 15 15 15 10 9 9 9 9 9 10 10 10 10 10 10 10 10 10 9 9 10 11 11 11 11 11 11 11 11 12 11 11 11 11 12 12
5 5 4 5 5 5 6 5 3 3 4 4 3 3 2 3 3 3 3 4 4 3 3 3 3 2 1 0 0 1 1 2 2 2 0 0 0 3 5 6 4 5 9 10 7 8 8 13 15 14 14 15 13 11 9 9 9 9 10 10 10 10 10 10 10 11 10 11 10 10 11 11 11 12 11 11 10 10 10 11 10 10 10 10 10 10 9
5 5 5 6 6 5 4 3 3 4 3 3 4 5 4 4 4 4 4 4 4 4 3 3 3 3 3 2 2 2 2 2 3 3 3 4 3 3 3 5 6 8 7 6 6 7 8 9 11 13 13 13 12 9 8 8 9 9 9 10 10 10 9 9 10 10 9 9 9 9 10 10 10 10 10 10 11 12 11 12 12 11 10 10 10 11 11
7 7 7 7 7 6 4 4 5 5 6 9 8 7 6 5 4 4 4 3 4 4 4 3 3 3 2 2 3 3 4 4 2 2 2 3 4 3 5 4 5 6 7 6 8 8 13 13 13 13 13 12 9 8 8 9 9 9 9 9 9 9 9 9 9 9 9 10 10 10 10 10 10 10 10 10 10 10 10 11 11 10 10 11 11 11 11
7 9 8 6 5 7 7 7 6 7 8 7 5 6 5 5 4 3 4 4 4 4 5 4 3 3 2 2 1 1 0 2 2 1 1 3 3 4 4 5 7 8 6 6 6 6 9 12 12 12 12 11 8 8 8 9 9 9 9 9 8 9 9 9 9 8 9 10 9 9 9 10 10 9 9 9 9 9 10 11 11 10 10 9 9 10 10
7 5 4 5 6 7 8 7 8 8 8 6 7 7 4 3 3 7 7 6 6 5 4 4 5 4 3 1 1 1 1 2 1 1 3 3 2 3 4 4 4 6 6 6 6 6 7 10 10 10 9 8 8 8 8 9 9 10 9 9 9 8 9 9 9 10 9 9 9 8 9 8 8 9 9 9 9 9 9 9 9 11 15 11 10 10 10
7 7 8 8 9 9 9 10 11 9 8 8 8 7 5 6 8 8 7 7 5 5 6 6 5 5 3 2 0 1 2 2 2 3 3 3 3 4 4 4 4 4 4 5 6 6 6 6 6 6 8 8 8 9 8 9 8 9 9 9 10 8 8 9 9 9 10 9 8 8 9 8 8 8 8 8 9 9 9 9 9 9 10 10 10 9 9
9 9 8 8 8 8 8 9 7 6 7 7 7 6 7 7 7 7 6 4 6 7 7 5 7 6 4 4 2 1 1 1 2 3 3 3 4 3 3 4 4 5 6 5 5 6 5 5 6 7 8 8 8 8 8 9 8 8 8 9 8 9 9 9 9 9 8 9 9 8 9 8 8 8 8 8 8 9 9 9 9 9 9 9 9 9 9
Wind_Direction
267 265 275 298 289 156 39 35 340 337 337 356 35 221 232 209 223 258 286 293 287 287 295 300 297 301 305 306 305 301 302 302 299 297 296 295 291 288 285 279 276 275 273 270 270 273 272 271 271 267 249 238 240 241 236 230 219 215 209 203 202 200 197 195 196 194 192 189 181 175 173 174 182 192 200 202 195 190 190 197 199 201 199 199 201 203 203
299 287 279 286 310 73 81 56 12 338 343 314 289 264 260 235 250 266 279 283 278 279 282 287 296 301 297 297 297 297 296 295 294 292 290 288 287 285 281 276 273 270 268 267 263 266 269 265 265 265 261 246 237 236 234 227 220 217 208 207 203 199 199 200 197 189 184 183 183 172 167 173 180 187 194 199 194 192 196 197 197 192 194 197 201 204 202
309 302 267 134 109 122 107 68 40 344 313 269 265 273 268 268 261 256 263 276 280 272 279 299 306 307 304 299 297 295 292 290 290 288 286 284 282 280 278 276 270 265 264 263 261 258 260 260 257 260 258 252 241 235 232 226 220 215 204 206 203 197 199 200 194 186 180 178 175 174 168 172 174 178 185 189 193 195 194 196 198 194 192 198 205 207 205
309 320 22 135 155 149 110 44 16 1 355 355 342 318 302 294 284 287 286 282 275 292 315 302 294 292 291 291 293 297 302 303 300 297 291 285 280 276 274 272 269 266 260 259 259 255 254 256 252 251 254 249 235 235 231 228 221 211 209 208 202 198 194 182 175 176 177 175 171 169 164 172 178 181 181 186 194 198 195 194 196 194 200 205 207 206 205
264 302 338 357 129 155 17 14 328 311 296 290 289 268 256 255 272 292 290 277 285 298 306 306 301 301 298 299 301 304 298 291 288 286 287 286 286 285 279 270 266 262 259 256 253 254 251 250 247 244 243 244 236 230 227 226 222 203 208 209 201 191 173 155 145 135 130 124 109 102 131 162 179 182 188 196 201 200 200 196 187 192 201 202 207 205 204
294 314 334 102 101 64 44 261 249 215 310 321 314 310 308 301 251 243 257 276 288 293 298 297 297 301 297 296 295 287 285 290 289 286 282 280 277 272 273 275 270 263 257 253 249 247 247 246 245 243 238 237 236 225 219 221 217 207 203 210 206 194 176 163 160 162 161 163 159 151 150 151 164 219 206 208 209 207 203 192 190 192 193 200 204 205 208
309 324 343 70 41 102 238 249 249 234 250 275 284 288 286 282 279 265 271 276 289 296 295 291 289 288 289 288 289 287 280 277 275 277 278 279 277 275 271 265 263 261 257 251 246 244 241 241 240 239 238 230 232 219 204 208 213 214 205 207 207 199 190 180 171 172 185 186 169 162 164 167 170 196 233 226 213 209 202 195 193 192 193 197 203 206 209
277 1 6 72 215 181 229 268 261 255 243 252 308 313 303 182 289 284 292 298 298 298 299 297 293 289 287 286 277 276 277 274 272 270 269 269 271 271 266 264 260 256 254 249 242 239 237 236 236 232 232 224 220 217 196 198 203 211 211 208 209 204 196 190 183 183 180 179 176 167 163 173 178 192 211 222 208 202 203 207 202 195 193 191 198 204 208
24 328 300 265 179 94 342 355 351 354 346 335 334 313 298 318 305 265 315 312 310 308 303 300 299 300 299 292 287 266 264 274 276 276 274 271 269 267 267 262 259 253 250 248 239 232 230 228 228 227 225 217 210 210 195 197 195 201 205 209 208 204 204 196 191 186 184 178 174 175 177 178 187 200 210 212 206 190 193 202 206 201 191 189 194 201 205
86 349 338 358 9 25 324 312 308 330 294 271 226 254 287 321 197 330 324 311 307 305 307 309 312 311 307 307 306 309 307 303 300 293 286 280 274 270 268 269 264 256 248 244 238 226 225 225 224 225 221 212 203 204 198 192 186 194 196 208 208 202 203 199 192 185 181 178 178 180 180 186 192 200 204 204 200 189 190 192 203 210 205 191 186 194 200
18 21 68 253 115 83 244 320 331 324 314 300 168 222 282 230 330 328 320 311 311 313 316 314 316 315 310 302 307 316 315 310 307 303 299 294 287 279 272 270 272 265 251 238 232 222 220 222 221 219 216 204 199 203 200 189 183 185 194 203 203 202 204 199 195 185 178 178 178 175 178 190 196 197 197 198 197 190 194 193 199 202 204 199 185 184 197
27 347 33 332 191 345 340 331 323 325 312 118 224 300 292 336 329 325 324 316 318 318 317 317 319 323 321 321 321 319 316 314 314 314 311 302 293 289 285 277 266 268 257 237 222 215 212 217 215 212 211 202 201 203 200 182 183 190 195 198 199 201 200 196 193 187 179 177 181 180 183 188 189 198 191 188 187 187 195 195 197 195 195 197 192 192 191
320 17 300 289 317 278 281 328 331 331 320 24 357 9 308 322 320 320 321 315 315 316 316 320 314 314 306 304 306 313 317 319 322 318 311 304 298 294 289 281 274 265 258 231 213 205 207 212 209 205 200 194 200 202 190 176 194 200 198 195 192 193 193 192 191 187 181 180 182 189 187 185 183 183 183 187 183 183 186 190 187 191 193 196 199 201 192
347 333 305 262 239 238 281 344 332 328 330 18 339 300 300 305 313 312 317 313 315 317 314 312 307 308 309 307 310 316 321 323 323 322 321 321 317 304 296 287 276 261 251 230 212 201 202 203 203 194 186 191 197 196 179 188 202 204 197 189 184 178 175 186 190 184 179 177 177 177 179 171 173 183 189 186 186 186 182 180 189 197 196 192 201 208 206
252 20 337 343 23 286 350 355 345 26 22 310 276 297 301 306 305 313 313 313 309 317 314 314 313 312 314 318 321 321 322 328 329 327 329 330 326 317 329 340 332 287 253 216 203 198 196 191 192 171 173 187 194 187 187 202 202 194 182 174 171 171 172 175 187 186 179 172 172 171 170 172 174 186 184 184 184 177 175 178 188 195 194 195 201 213 216
301 16 15 18 255 281 334 27 328 312 261 272 292 303 308 315 316 315 317 314 315 317 316 318 318 317 319 322 323 328 330 332 331 333 335 336 335 324 337 345 348 350 355 39 38 71 136 189 186 170 176 184 185 182 202 206 183 164 162 162 160 161 169 173 173 181 180 175 172 168 169 169 179 180 180 180 175 173 174 178 184 192 198 196 202 208 215
87 307 224 245 272 294 296 269 232 263 285 295 293 292 291 308 314 315 310 311 315 318 318 322 321 320 324 324 327 333 333 335 337 338 339 339 339 343 344 347 352 352 352 346 344 25 177 178 182 181 176 178 175 194 204 141 154 157 155 152 154 161 168 170 172 175 171 170 170 168 169 167 169 172 170 162 166 175 168 178 183 193 200 197 201 208 213
274 240 231 273 313 303 302 293 242 268 295 296 296 306 313 310 307 314 315 314 313 317 324 323 323 325 326 329 332 336 337 338 339 340 348 353 346 346 360 2 342 341 337 329 324 315 9 201 171 168 176 169 183 199 155 158 151 148 146 149 157 166 168 166 166 158 161 169 172 171 167 173 172 173 167 169 173 174 176 181 186 191 196 197 203 208 217
36 294 304 320 292 308 298 288 299 301 282 282 301 308 306 305 313 320 323 318 314 319 325 332 328 325 328 333 336 336 337 340 340 343 350 357 356 348 350 359 10 5 337 323 319 320 330 33 126 160 174 194 183 152 159 149 146 141 146 149 152 150 153 147 141 147 152 158 157 157 161 157 159 160 162 166 168 170 175 179 184 192 194 195 200 205 215
173 247 278 288 285 269 271 264 285 304 304 304 309 305 299 297 305 313 317 321 327 336 337 335 331 327 334 339 340 340 339 340 344 345 351 355 0 359 355 358 8 25 21 8 359 25 38 28 19 17 16 151 164 150 143 143 138 137 139 150 151 156 152 149 150 152 150 153 151 157 167 161 157 159 166 165 163 173 173 181 182 191 197 195 199 203 213
276 303 304 297 313 328 310 305 289 288 301 312 315 319 319 319 325 327 331 339 339 339 337 335 335 335 336 340 339 340 342 342 348 348 352 357 1 4 7 4 9 21 17 17 16 21 18 6 21 32 24 9 24 41 107 136 142 135 144 146 147 144 148 145 154 157 152 160 164 162 169 177 177 172 168 177 183 188 197 182 182 186 196 203 205 211 208
325 224 264 354 10 314 308 312 315 318 311 324 316 320 331 336 336 339 338 335 339 341 342 341 341 342 338 340 341 345 348 346 346 354 358 360 3 9 9 13 20 22 21 20 19 18 9 6 17 17 18 17 20 32 28 21 77 126 129 135 137 151 155 159 159 161 164 169 169 166 165 172 177 224 273 207 183 175 204 216 205 197 184 195 203 205 209
241 252 249 201 230 255 258 265 306 308 312 332 330 330 333 334 334 338 342 339 337 341 344 345 346 346 344 342 343 347 352 351 348 354 1 4 6 9 12 16 16 21 24 23 22 18 11 9 13 17 20 20 21 18 18 31 31 53 120 124 132 145 160 166 171 170 171 170 177 171 171 168 174 180 193 239 259 241 222 202 203 212 211 214 212 208 197
254 252 266 225 192 239 277 295 298 296 313 341 327 321 327 332 334 340 340 341 339 336 340 346 347 347 347 348 349 350 350 355 353 354 1 5 9 10 14 15 15 20 22 23 22 16 11 12 14 13 12 11 9 12 24 17 29 67 114 142 158 175 180 181 175 178 176 174 172 171 177 175 176 174 181 202 237 241 232 235 236 222 220 223 227 219 213
226 210 199 217 215 249 256 267 275 279 324 357 329 323 329 335 337 342 342 341 340 342 343 345 344 349 350 349 351 353 353 356 355 354 1 7 13 17 13 10 14 17 20 23 22 17 13 11 16 17 18 5 356 353 351 351 359 319 187 186 195 195 193 182 181 180 176 172 176 173 175 181 185 181 181 187 201 234 270 253 234 229 228 229 231 227 222
243 277 281 257 271 255 285 341 337 333 330 338 331 320 328 336 335 344 346 342 342 344 348 348 346 347 350 354 355 354 357 358 353 2 8 8 14 18 13 8 8 13 17 23 24 21 19 16 14 16 19 4 352 342 334 335 325 300 270 242 218 199 191 188 181 184 189 186 182 189 192 188 187 187 195 191 201 203 206 224 287 280 258 238 231 226 226
249 243 265 330 344 318 333 117 262 287 309 315 334 321 322 334 335 342 341 352 351 348 351 351 353 348 352 358 355 358 360 354 3 8 8 9 11 9 9 9 9 10 14 21 22 15 14 16 17 25 21 3 345 336 324 310 297 277 257 241 249 244 225 201 190 196 193 191 193 197 195 195 194 194 196 201 200 200 202 195 204 213 218 232 233 216 220
244 253 191 170 215 224 262 262 256 282 287 320 335 328 323 333 352 359 360 355 355 351 353 358 358 358 358 356 357 359 1 6 9 8 10 8 7 7 4 3 10 12 19 24 23 16 13 11 14 23 19 3 352 342 335 319 296 263 247 242 243 244 243 225 217 212 206 205 202 200 201 206 205 203 202 199 202 209 209 209 208 212 228 224 217 211 217
236 240 238 221 221 234 269 297 323 342 340 330 332 329 345 355 359 4 0 356 350 350 354 351 357 1 0 357 0 1 2 6 9 8 7 5 6 6 7 9 5 11 20 19 19 18 7 2 11 21 14 0 354 351 344 342 351 356 304 259 241 238 241 237 228 224 221 218 213 208 206 206 203 208 211 214 214 215 212 212 212 216 220 219 199 226 224
249 254 275 279 279 281 236 326 313 321 322 318 338 333 346 359 6 2 356 352 354 0 350 346 353 359 359 2 1 359 1 2 4 5 8 9 8 8 8 4 11 26 24 17 8 0 1 10 19 23 11 358 354 354 359 359 6 17 35 31 13 343 280 257 236 231 231 223 222 214 214 212 209 207 208 210 212 213 216 216 219 220 231 221 213 214 205
291 337 312 295 269 230 137 228 286 294 298 326 333 333 344 354 3 3 357 348 352 354 348 354 352 353 359 360 355 355 358 3 7 9 10 10 9 8 9 12 23 22 16 6 4 6 6 7 9 10 0 355 351 353 8 17 16 25 33 36 57 49 37 19 336 256 228 225 219 215 217 212 214 211 213 214 215 216 217 220 221 226 229 218 210 229 204
324 323 331 285 290 3 313 334 13 331 318 319 352 354 323 328 348 352 349 356 347 344 346 352 356 354 351 352 354 357 1 4 7 10 12 11 9 8 7 10 20 24 19 13 13 13 13 16 16 2 356 3 1 1 18 26 27 30 31 26 39 55 42 39 37 31 41 69 86 146 196 194 210 207 207 207 212 215 216 214 216 213 212 213 221 227 139
240 316 328 321 344 360 323 282 182 298 305 314 289 272 288 287 307 339 344 339 344 354 356 352 346 346 346 354 2 3 2 360 6 13 13 10 8 6 5 5 9 16 20 17 13 10 14 15 2 358 9 13 14 14 18 25 30 34 33 35 37 47 55 52 44 38 36 35 45 45 54 66 65 63 62 80 134 160 137 149 145 107 60 52 46 351 286
179 202 221 221 211 238 243 272 236 247 278 265 253 270 295 319 312 320 342 344 359 356 353 342 340 343 349 359 2 4 3 10 13 7 5 6 6 4 2 3 5 10 18 17 14 13 12 11 4 2 8 15 18 16 15 21 27 29 29 30 33 31 38 48 52 48 47 34 17 25 44 50 52 57 59 58 50 51 52 57 56 64 76 58 37 356 353
203 227 223 239 236 232 217 221 243 243 238 269 298 314 298 292 305 322 336 9 354 318 316 338 349 351 359 2 4 5 8 11 1 359 360 2 4 2 357 3 9 11 15 19 15 10 4 6 6 0 8 17 21 22 15 18 25 29 27 28 36 35 30 43 48 51 50 40 28 37 33 39 41 43 51 56 59 57 57 53 51 54 61 53 30 10 8
190 235 259 262 257 241 231 230 228 225 220 219 234 247 279 288 310 352 1 328 301 330 350 349 348 4 11 6 3 3 5 358 355 355 358 359 359 0 7 15 11 13 11 13 10 5 359 1 357 1 11 17 21 21 18 14 26 27 29 30 36 34 34 39 42 44 42 45 40 40 42 39 45 43 39 43 44 49 54 54 54 57 59 54 42 34 30
202 221 243 239 250 247 242 231 216 210 216 219 233 252 299 303 297 308 304 329 343 342 343 346 2 13 3 353 356 4 7 0 356 355 352 353 358 10 14 12 13 11 7 15 356 353 357 358 352 3 13 19 20 22 16 16 24 26 31 31 33 34 35 40 36 39 37 36 39 40 39 36 35 43 43 41 46 45 47 53 50 54 52 54 48 47 38
262 216 240 246 220 216 223 233 201 181 177 139 309 34 282 305 311 315 358 359 352 345 336 1 4 342 0 6 16 13 5 2 2 358 357 0 358 17 22 21 10 1 9 359 334 351 357 354 357 8 12 16 15 19 16 15 21 26 32 31 33 33 34 35 35 37 35 35 33 39 38 35 34 39 38 36 42 44 47 47 49 51 51 45 43 46 51
287 354 8 28 86 112 103 78 94 103 135 145 132 70 40 320 289 351 33 10 352 353 13 7 358 23 16 17 12 8 7 2 2 6 6 2 1 20 23 18 12 1 339 321 342 358 359 1 6 9 13 10 10 11 15 16 21 29 28 30 32 34 32 34 35 36 34 33 35 34 37 35 35 35 36 33 30 36 44 43 41 40 41 40 36 30 24
247 250 170 136 121 125 104 90 85 97 143 164 142 150 176 137 119 71 33 18 2 15 12 4 30 30 9 9 7 8 353 355 3 14 10 6 16 17 13 14 6 356 349 346 354 4 3 5 9 11 7 7 12 9 12 15 22 30 29 29 30 32 32 31 33 35 32 32 34 34 35 35 36 39 39 35 35 34 32 34 34 33 33 34 35 33 32
213 182 170 146 152 150 140 121 105 102 98 93 101 127 215 170 131 86 48 6 337 3 16 28 38 28 14 359 351 348 355 0 8 17 13 27 24 17 25 12 347 347 349 350 0 5 8 11 11 8 2 4 13 10 12 14 22 30 30 31 31 32 33 30 32 31 31 30 31 30 29 29 33 34 32 34 32 31 30 31 32 31 32 32 32 33 35
209 167 150 154 163 158 154 145 133 103 78 78 98 127 156 259 138 122 104 23 16 12 23 27 47 39 355 352 6 23 24 5 3 9 25 46 31 18 23 2 339 343 345 357 10 15 10 7 6 11 6 8 13 12 18 21 23 24 29 29 31 31 34 32 33 30 29 34 34 33 29 31 33 31 27 31 30 27 27 29 30 29 28 29 31 30 31
169 167 177 177 181 178 148 140 142 141 122 98 124 157 169 173 116 91 72 63 45 33 36 23 16 19 24 19 27 31 15 359 12 360 11 38 64 73 40 325 331 347 2 14 10 23 16 9 6 360 12 21 23 19 26 26 23 25 26 26 28 30 33 33 34 32 32 32 31 31 31 32 31 32 30 31 30 27 26 29 29 28 27 28 28 28 30
186 182 178 162 179 193 163 139 120 107 112 136 161 180 180 160 145 140 139 119 89 82 83 43 19 21 18 22 44 29 4 360 4 352 32 19 16 19 18 356 333 352 11 14 14 17 15 10 9 11 16 20 21 25 29 28 27 27 27 28 28 29 30 30 30 32 32 32 31 30 29 31 32 31 32 31 28 26 25 27 27 28 30 29 28 29 28
182 182 186 180 167 151 168 169 160 166 175 169 165 178 187 167 171 178 153 141 141 154 160 154 119 56 4 23 48 357 307 310 323 354 36 13 22 358 344 349 350 3 9 15 17 11 10 8 8 19 25 25 27 26 27 25 29 30 29 31 30 31 31 31 28 28 29 31 31 31 31 35 34 32 32 31 30 31 26 26 27 25 26 27 26 28 27
185 198 195 153 160 187 195 190 193 151 141 148 175 215 213 193 182 191 191 167 167 191 193 189 185 199 200 226 301 318 346 2 360 16 320 257 321 299 321 336 342 2 15 20 19 9 359 358 11 17 23 29 31 33 28 23 26 29 31 31 31 30 33 32 31 31 29 30 30 32 34 35 37 36 35 35 31 29 27 26 29 27 26 26 26 24 24
183 185 194 193 191 187 172 158 130 127 136 155 177 210 232 230 218 205 210 211 200 209 215 215 220 227 212 197 182 133 89 38 353 347 16 347 349 343 352 3 12 7 12 18 16 12 3 0 6 11 19 25 35 37 30 31 34 35 33 32 29 29 28 28 30 29 28 26 26 30 31 33 33 33 30 32 32 30 28 28 30 24 21 23 23 23 24
181 192 201 201 190 175 153 145 143 167 185 198 202 212 219 222 221 226 232 224 228 236 241 244 245 262 257 247 231 209 178 131 73 321 350 8 342 2 19 24 4 3 7 12 15 12 10 9 10 16 18 22 31 32 31 34 38 38 39 35 33 29 26 24 24 26 26 26 26 28 26 27 26 28 31 32 30 29 27 30 28 24 23 24 25 23 23
193 196 199 194 183 161 168 182 188 193 210 217 210 224 223 215 229 253 251 246 241 246 242 243 257 274 280 266 263 334 178 179 172 195 356 37 12 26 19 11 11 8 10 13 11 10 9 11 15 18 25 30 33 29 32 35 39 39 39 38 38 35 32 33 28 26 32 32 30 30 29 27 23 23 24 26 27 26 27 28 26 24 18 19 24 25 24
197 192 190 187 192 189 184 187 202 210 215 202 209 222 204 173 213 246 234 228 224 229 244 260 259 253 254 280 354 13 24 81 95 62 48 31 33 58 43 29 14 9 11 8 6 9 11 16 21 24 31 37 40 38 40 42 43 40 38 35 35 39 37 35 36 31 29 31 29 26 25 28 25 21 21 24 24 24 26 27 26 24 23 27 26 22 21
190 195 206 204 203 204 194 192 200 202 198 202 210 202 174 186 213 226 218 213 210 224 239 253 264 259 261 257 347 14 18 35 50 53 59 48 52 45 34 28 21 17 13 16 15 10 14 24 26 32 43 48 49 46 44 44 46 44 42 40 36 29 24 23 23 27 24 24 24 25 23 19 18 19 23 22 22 21 21 20 22 21 23 22 22 22 18
197 201 205 204 206 209 210 215 216 204 200 197 193 184 192 207 214 239 254 226 201 212 215 216 250 259 218 204 173 146 2 58 81 69 75 71 59 41 28 22 21 14 16 22 23 21 26 30 39 46 52 56 55 53 48 45 45 44 41 39 36 33 32 26 21 21 16 15 17 17 17 17 16 14 15 16 17 18 19 21 21 22 22 19 15 13 12